This demonstration page uses our WeatherBlox Daily Observations layout. Learn more.

40.92945, -100.16068

Hourly Observations for January 10, 2020

Temp ( °F °C ) Dew Point ( °F °C ) Humidity (%) Winds ( mph kmh ) Pressure ( in mb ) Visibility ( mi km ) Precip ( " mm )
12:15 am 00:15 Mostly Cloudy 30 -1 29 -1.7 95 95 ESE 7 11 30.05 1017 10 16.0934 0 0
12:35 am 00:35 Mostly Cloudy 30 -1.1 29 -1.8 95 95 E 8 13 30.05 1018 10 16.0934 0 0
12:55 am 00:55 Mostly Cloudy 29 -1.5 28 -2 96 96 E 6 9 30.05 1018 10 16.0934 0 0
1:15 am 01:15 Cloudy 29 -1.6 28 -2.1 96 96 E 6 9 30.05 1018 10 16.0934 0 0
1:35 am 01:35 Cloudy 29 -1.8 28 -2 99 99 E 8 13 30.05 1018 10 16.0934 0 0
1:55 am 01:55 Cloudy with Mist and Fog 28 -2 28 -2.1 99 99 ENE 7 11 30.05 1017 4 6.43736 0 0
2:15 am 02:15 Cloudy with Mist and Fog 28 -2.3 28 -2.3 100 100 ENE 10 17 30.06 1018 1.25 2.011675 0 0
2:35 am 02:35 Cloudy with Mist and Fog 28 -2.4 28 -2.4 100 100 ENE 8 13 30.07 1018 0.75 1.207005 0 0
2:55 am 02:55 Cloudy with Mist and Fog 28 -2.4 28 -2.4 100 100 ENE 10 17 30.07 1018 1.25 2.011675 0 0
3:15 am 03:15 Cloudy with Mist and Fog 28 -2.3 28 -2.3 100 100 ENE 7 11 30.08 1019 0.75 1.207005 0 0
3:35 am 03:35 Cloudy with Mist and Fog 28 -2.3 28 -2.3 100 100 ENE 8 13 30.08 1019 0.75 1.207005 0 0
3:55 am 03:55 Cloudy with Mist and Fog 28 -2.5 28 -2.5 100 100 ENE 12 19 30.08 1019 1.25 2.011675 0 0
4:15 am 04:15 Cloudy with Mist and Fog 28 -2.5 28 -2.5 100 100 ENE 9 15 30.1 1019 1.25 2.011675 0 0
4:35 am 04:35 Cloudy with Mist and Fog 27 -2.7 27 -2.7 100 100 ENE 9 15 30.11 1020 1.5 2.41401 0 0
4:55 am 04:55 Cloudy with Mist and Fog 26 -3.3 26 -3.3 100 100 NE 10 17 30.13 1020 4 6.43736 0 0
5:15 am 05:15 Cloudy with Mist and Fog 26 -3.3 26 -3.3 100 100 NNE 9 15 30.12 1020 3 4.82802 0 0
5:35 am 05:35 Cloudy with Mist and Fog 26 -3.3 26 -3.3 100 100 NE 10 17 30.12 1020 2.5 4.02335 0 0
5:55 am 05:55 Cloudy with Mist and Fog 26 -3.2 26 -3.2 100 100 NE 9 15 30.14 1021 2.5 4.02335 0 0
6:15 am 06:15 Cloudy with Mist and Fog 26 -3.1 26 -3.1 100 100 NNE 10 17 30.14 1021 1.75 2.816345 0 0
6:35 am 06:35 Cloudy with Mist and Fog 26 -3.2 26 -3.2 100 100 NE 10 17 30.15 1021 2 3.21868 0 0
6:55 am 06:55 Cloudy with Mist and Fog 26 -3.3 26 -3.3 100 100 NE 12 19 30.15 1021 3 4.82802 0 0
7:15 am 07:15 Cloudy with Mist and Fog 26 -3.5 26 -3.5 100 100 NE 12 19 30.16 1021 2 3.21868 0 0
7:35 am 07:35 Cloudy with Mist and Fog 25 -3.8 25 -4 99 99 NE 12 19 30.19 1022 5 8.0467 0 0
7:55 am 07:55 Cloudy with Mist and Fog 25 -3.9 25 -4 99 99 NE 12 19 30.2 1023 5 8.0467 0 0
8:15 am 08:15 Cloudy with Mist and Fog 25 -4 24 -4.2 99 99 NE 10 17 30.19 1022 5 8.0467 0 0
8:35 am 08:35 Cloudy with Mist and Fog 25 -4 24 -4.2 99 99 NE 14 22 30.19 1022 3 4.82802 0 0
8:55 am 08:55 Cloudy with Mist and Fog 24 -4.2 24 -4.6 97 97 NNE 13 20 30.2 1023 5 8.0467 0 0
9:15 am 09:15 Cloudy with Mist and Fog 25 -4 24 -4.3 98 98 NNE 13 20 30.21 1023 3 4.82802 0 0
9:35 am 09:35 Cloudy with Mist and Fog 25 -4.1 24 -4.5 97 97 NE 14 22 30.22 1023 3 4.82802 0 0
9:55 am 09:55 Cloudy with Mist and Fog 24 -4.2 24 -4.5 98 98 NNE 13 20 30.24 1024 3 4.82802 0 0
10:15 am 10:15 Cloudy with Mist and Fog 24 -4.5 24 -4.7 99 99 NE 14 22 30.26 1025 2.5 4.02335 0 0
10:35 am 10:35 Cloudy with Mist and Fog 24 -4.6 23 -5 97 97 NE 14 22 30.28 1026 5 8.0467 0 0
10:55 am 10:55 Cloudy with Mist and Fog 23 -4.9 22 -5.4 96 96 NE 13 20 30.31 1026 5 8.0467 0 0
11:15 am 11:15 Cloudy 23 -5.1 22 -5.7 96 96 NE 16 26 30.32 1027 7 11.26538 0 0
11:35 am 11:35 Cloudy with Mist and Fog 23 -5 22 -5.6 96 96 NE 14 22 30.32 1027 5 8.0467 0 0
11:55 am 11:55 Windy with Snow Likely 21 -5.9 20 -6.7 94 94 NNE 21 33 30.33 1027 4 6.43736 0 0
12:15 pm 12:15 Windy with Snow Likely 20 -6.4 19 -7.5 92 92 NNE 20 31 30.33 1027 1 1.60934 0 0
12:35 pm 12:35 Cloudy with Light Snow 20 -6.4 18 -7.6 91 91 NNE 17 28 30.32 1027 1.25 2.011675 0 0
12:55 pm 12:55 Windy with Snow Likely 21 -6.3 17 -8.3 86 86 N 20 31 30.3 1026 3 4.82802 0 0
1:15 pm 13:15 Cloudy 20 -6.5 16 -9.1 82 82 N 23 37 30.29 1026 10 16.0934 0 0
1:35 pm 13:35 Cloudy 20 -6.8 15 -9.4 82 82 N 24 39 30.31 1026 10 16.0934 0 0
1:55 pm 13:55 Windy with Snow Likely 19 -7.3 14 -10.2 80 80 N 24 39 30.31 1026 5 8.0467 0 0
2:15 pm 14:15 Windy with Snow Likely 18 -7.7 12 -10.9 78 78 N 22 35 30.34 1027 10 16.0934 0 0
2:35 pm 14:35 Windy with Snow Likely 18 -8 12 -11 79 79 N 23 37 30.35 1028 10 16.0934 0 0
2:55 pm 14:55 Cloudy 18 -7.9 12 -11.1 78 78 N 20 31 30.35 1028 10 16.0934 0 0
3:15 pm 15:15 Cloudy 18 -7.8 12 -10.9 79 79 N 22 35 30.37 1028 10 16.0934 0 0
3:35 pm 15:35 Cloudy 18 -8 12 -11.3 77 77 N 18 30 30.37 1028 10 16.0934 0 0
3:55 pm 15:55 Mostly Cloudy 18 -8 12 -11.2 78 78 N 18 30 30.38 1029 10 16.0934 0 0
4:15 pm 16:15 Partly Cloudy 17 -8.1 11 -11.5 77 77 N 22 35 30.39 1029 10 16.0934 0 0
4:35 pm 16:35 Partly Cloudy 17 -8.1 11 -11.6 76 76 N 21 33 30.39 1029 10 16.0934 0 0
4:55 pm 16:55 Sunny 18 -8 12 -11.3 77 77 N 17 28 30.41 1030 10 16.0934 0 0
5:15 pm 17:15 Partly Cloudy 17 -8.4 11 -11.7 77 77 N 22 35 30.41 1030 10 16.0934 0 0
5:35 pm 17:35 Mostly Cloudy 16 -8.7 11 -11.6 80 80 N 22 35 30.41 1030 10 16.0934 0 0
5:55 pm 17:55 Mostly Cloudy 15 -9.2 10 -12.2 79 79 N 21 33 30.41 1030 10 16.0934 0 0
6:15 pm 18:15 Mostly Cloudy 15 -9.5 10 -12 82 82 N 21 33 30.4 1029 10 16.0934 0 0
6:35 pm 18:35 Partly Cloudy 15 -9.7 9 -12.8 78 78 N 21 33 30.4 1029 10 16.0934 0 0
6:55 pm 18:55 Clear 14 -10 9 -12.7 81 81 N 18 30 30.41 1030 10 16.0934 0 0
7:15 pm 19:15 Clear 14 -10.1 9 -12.8 81 81 N 14 22 30.44 1031 10 16.0934 0 0
7:35 pm 19:35 Clear 13 -10.3 9 -13 81 81 N 14 22 30.47 1032 10 16.0934 0 0
7:55 pm 19:55 Clear 13 -10.5 8 -13.1 81 81 N 10 17 30.48 1032 10 16.0934 0 0
8:15 pm 20:15 Clear 13 -10.6 8 -13.1 82 82 N 9 15 30.48 1032 10 16.0934 0 0
8:35 pm 20:35 Clear 13 -10.8 8 -13.3 82 82 N 13 20 30.48 1032 10 16.0934 0 0
8:55 pm 20:55 Clear 12 -11 8 -13.4 83 83 N 13 20 30.47 1032 10 16.0934 0 0
9:15 pm 21:15 Clear 12 -11.1 8 -13.3 84 84 N 12 19 30.47 1032 10 16.0934 0 0
9:35 pm 21:35 Clear 12 -11.3 8 -13.4 85 85 N 10 17 30.48 1032 10 16.0934 0 0
9:55 pm 21:55 Clear 12 -11.3 8 -13.5 84 84 NNW 12 19 30.49 1032 10 16.0934 0 0
10:15 pm 22:15 Clear 11 -11.5 8 -13.6 85 85 NNW 13 20 30.49 1032 10 16.0934 0 0
10:35 pm 22:35 Clear 11 -11.6 7 -13.7 85 85 NNW 10 17 30.49 1032 10 16.0934 0 0
10:55 pm 22:55 Clear 11 -11.7 7 -13.7 85 85 N 13 20 30.47 1032 10 16.0934 0 0
11:15 pm 23:15 Clear 11 -11.9 7 -13.8 86 86 NNW 13 20 30.47 1032 10 16.0934 0 0
11:35 pm 23:35 Clear 10 -12 7 -14 85 85 N 9 15 30.46 1032 10 16.0934 0 0
11:55 pm 23:55 Clear 10 -12.2 7 -14.1 86 86 N 10 17 30.46 1031 10 16.0934 0 0

Powered by AerisWeather